Weather History for Baker, MT

Change the Weather History Date:

Thursday, November 22, 2012

  Actual Average Record
Temperature  
Mean Temperature 27 °F -  
Max Temperature 42 °F 32 °F 59 °F (2002)
Min Temperature 12 °F 8 °F -6 °F (2010)
Degree Days  
Heating Degree Days 38    
Moisture  
Dew Point 18 °F    
Average Humidity 74    
Maximum Humidity 86    
Minimum Humidity 60    
Precipitation  
Precipitation 0.00 in - - ()
Sea Level Pressure  
Sea Level Pressure 30.19 in    
Wind  
Wind Speed 18 mph (WNW)    
Max Wind Speed 29 mph    
Max Gust Speed 41 mph    
Visibility 8 miles    
Events Snow    
Averages and records for this station are not official NWS values.
T = Trace of Precipitation, MM = Missing Value Source: NWS Daily Summary

Daily Weather History Graph

Daily Weather History Graph

Search for Another Location

Airport:

Trip Planner

Search our weather history database for the weather conditions in past years. The results will help you decide how hot, cold, wet, or windy it might be!

Date:

Astronomy

Nov. 22, 2012 Rise Set
Actual Time 7:08 AM MST 4:17 PM MST
Civil Twilight 6:35 AM MST 4:50 PM MST
Nautical Twilight 5:58 AM MST 5:27 PM MST
Astronomical Twilight 5:22 AM MST 6:03 PM MST
Moon 1:19 PM MST 1:13 AM MST
Length of Visible Light 10h 15m
Length of Day
9h 08m
Waxing Gibbous, 72% of the Moon is Illuminated
Nov 22
Waxing Gibbous
Nov 28
Full
Dec 6
Last Quarter
Dec 13
New
Dec 19
First Quarter

Hourly Weather History & Observations

Time (MST) Temp. Windchill Dew Point Humidity Pressure Visibility Wind Dir Wind Speed Gust Speed Precip Events Conditions
12:51 AM 42.1 °F 33.1 °F 34.0 °F 73% 29.79 in 10.0 mi WNW 20.7 mph 29.9 mph N/A   Mostly Cloudy
1:26 AM 42.8 °F 36.6 °F 33.8 °F 70% 29.83 in 10.0 mi WNW 11.5 mph - N/A   Overcast
1:42 AM 42.8 °F 34.0 °F 33.8 °F 70% 29.84 in 10.0 mi WNW 20.7 mph 27.6 mph N/A   Overcast
1:51 AM 42.1 °F 33.3 °F 32.0 °F 67% 29.83 in 10.0 mi WNW 19.6 mph 28.8 mph N/A   Overcast
2:51 AM 39.0 °F 28.5 °F 30.0 °F 70% 29.87 in 10.0 mi NW 23.0 mph 32.2 mph N/A   Overcast
3:51 AM 36.0 °F 26.7 °F 28.9 °F 76% 29.90 in 9.0 mi NW 15.0 mph 27.6 mph 0.00 in Snow Light Snow
4:51 AM 34.0 °F 25.0 °F 27.0 °F 75% 29.99 in 9.0 mi WNW 12.7 mph - 0.00 in Snow Light Snow
5:18 AM 33.8 °F 24.3 °F 26.6 °F 75% 29.96 in 9.0 mi WNW 13.8 mph - 0.00 in Snow Light Snow
5:40 AM 30.2 °F 21.3 °F 26.6 °F 86% 29.97 in 10.0 mi WNW 10.4 mph - 0.00 in   Mostly Cloudy
5:46 AM 30.2 °F 20.2 °F 26.6 °F 86% 29.97 in 10.0 mi WNW 12.7 mph - 0.00 in   Scattered Clouds
6:29 AM 28.4 °F 20.4 °F 24.8 °F 86% 29.99 in 10.0 mi WNW 8.1 mph - N/A   Mostly Cloudy
6:44 AM 28.4 °F 20.4 °F 24.8 °F 86% 29.99 in 10.0 mi WNW 8.1 mph - N/A   Scattered Clouds
6:51 AM 28.9 °F 20.4 °F 25.0 °F 85% 30.06 in 10.0 mi WNW 9.2 mph - N/A   Mostly Cloudy
7:08 AM 28.4 °F 20.4 °F 24.8 °F 86% 30.01 in 10.0 mi WNW 8.1 mph - N/A   Mostly Cloudy
7:51 AM 30.9 °F 20.7 °F 26.1 °F 82% 30.09 in 10.0 mi NW 13.8 mph 20.7 mph N/A   Overcast
7:56 AM 30.2 °F 19.8 °F 24.8 °F 80% 30.04 in 10.0 mi WNW 13.8 mph - N/A   Overcast
8:06 AM 30.2 °F 21.3 °F 24.8 °F 80% 30.05 in 10.0 mi NW 10.4 mph - N/A   Overcast
9:39 AM 32.0 °F 20.8 °F 24.8 °F 75% 30.09 in 9.0 mi WNW 17.3 mph 23.0 mph 0.00 in Snow Light Snow
9:51 AM 32.0 °F 21.2 °F 25.0 °F 75% 30.15 in 10.0 mi NW 16.1 mph 24.2 mph 0.00 in   Overcast
9:57 AM 30.2 °F 19.3 °F 24.8 °F 80% 30.10 in 10.0 mi WNW 15.0 mph - N/A   Overcast
10:48 AM 30.2 °F 19.3 °F 24.8 °F 80% 30.12 in 2.0 mi NW 15.0 mph - 0.00 in Snow Light Snow
10:51 AM 30.0 °F 18.3 °F 25.0 °F 82% 30.19 in 2.0 mi NW 17.3 mph 23.0 mph 0.00 in Snow Light Snow
11:03 AM 28.4 °F 16.6 °F 24.8 °F 86% 30.12 in 4.0 mi NW 16.1 mph 21.9 mph 0.00 in Snow Light Snow
11:51 AM 28.9 °F 15.8 °F 23.0 °F 78% 30.20 in 10.0 mi WNW 20.7 mph 28.8 mph 0.00 in   Overcast
12:27 PM 23.0 °F 6.0 °F 17.6 °F 80% 30.18 in 2.5 mi NW 27.6 mph 36.8 mph 0.00 in Snow Light Snow
12:36 PM 21.2 °F 5.2 °F 15.8 °F 80% 30.19 in 7.0 mi NW 21.9 mph 39.1 mph 0.00 in Snow Light Snow
12:51 PM 21.9 °F 4.2 °F 14.0 °F 72% 30.28 in 4.0 mi NW 28.8 mph 35.7 mph 0.00 in Snow Light Snow
12:54 PM 21.2 °F 3.9 °F 14.0 °F 74% 30.20 in 1.8 mi NW 26.5 mph 35.7 mph 0.00 in Snow Light Snow
1:21 PM 21.2 °F 3.9 °F 15.8 °F 80% 30.21 in 3.0 mi NW 26.5 mph 36.8 mph 0.00 in Snow Light Snow
1:27 PM 21.2 °F 3.9 °F 14.0 °F 74% 30.22 in 4.0 mi NW 26.5 mph 35.7 mph 0.00 in Snow Light Snow
1:36 PM 21.2 °F 4.5 °F 14.0 °F 74% 30.23 in 5.0 mi NW 24.2 mph 35.7 mph 0.00 in Snow Light Snow
1:51 PM 21.9 °F 4.2 °F 12.0 °F 66% 30.31 in 9.0 mi NW 28.8 mph 41.4 mph 0.00 in Snow Light Snow
2:11 PM 21.2 °F 4.9 °F 10.4 °F 63% 30.24 in 9.0 mi NW 23.0 mph 34.5 mph 0.00 in Snow Light Snow
2:27 PM 21.2 °F 4.2 °F 10.4 °F 63% 30.25 in 9.0 mi NW 25.3 mph 32.2 mph 0.00 in Snow Light Snow
2:37 PM 19.4 °F 0.8 °F 8.6 °F 63% 30.26 in 9.0 mi WNW 28.8 mph 38.0 mph 0.00 in Snow Light Snow
2:48 PM 19.4 °F 1.4 °F 8.6 °F 63% 30.27 in 9.0 mi WNW 26.5 mph 39.1 mph 0.00 in Snow Light Snow
2:51 PM 19.9 °F 3.2 °F 8.1 °F 60% 30.36 in 9.0 mi WNW 23.0 mph 36.8 mph 0.00 in Snow Light Snow
3:11 PM 19.4 °F 1.1 °F 8.6 °F 63% 30.28 in 9.0 mi WNW 27.6 mph 35.7 mph 0.00 in Snow Light Snow
3:51 PM 18.0 °F 0.9 °F 7.0 °F 62% 30.43 in 9.0 mi NW 21.9 mph 36.8 mph 0.00 in Snow Light Snow
4:51 PM 17.1 °F -0.6 °F 7.0 °F 65% 30.47 in 9.0 mi NW 23.0 mph 36.8 mph 0.00 in Snow Light Snow
5:51 PM 16.0 °F -2.5 °F 6.1 °F 65% 30.51 in 9.0 mi NW 24.2 mph 35.7 mph 0.00 in Snow Light Snow
6:51 PM 15.1 °F -1.6 °F 6.1 °F 68% 30.56 in 9.0 mi NW 18.4 mph - 0.00 in Snow Light Snow
7:51 PM 15.1 °F -0.1 °F 7.0 °F 70% 30.58 in 10.0 mi NW 15.0 mph - 0.00 in   Overcast
8:16 PM 14.0 °F 0.5 °F 6.8 °F 73% 30.47 in 10.0 mi NW 11.5 mph 20.7 mph N/A   Scattered Clouds
8:51 PM 12.9 °F -1.6 °F 6.1 °F 74% 30.60 in 10.0 mi NW 12.7 mph - N/A   Clear
9:51 PM 12.9 °F -2.8 °F 6.1 °F 74% 30.61 in 10.0 mi WNW 15.0 mph - N/A   Clear
10:51 PM 12.0 °F -2.7 °F 7.0 °F 80% 30.61 in 10.0 mi West 12.7 mph - N/A   Clear
11:51 PM 12.0 °F -2.0 °F 6.1 °F 77% 30.61 in 10.0 mi WNW 11.5 mph - N/A   Clear